SL-16 DEB, 39712

Orbit data source: Space-Track

SL-16 DEB, 39712 is space debris in LEO originally from a launch on Fri, 25 Dec 1992 UTC launched from the Tyuratam Missile And Space Complex (TTMTR). Debris objects in space refer to the collection of defunct objects orbiting the Earth. Examples of debris include non-operational satellites, rocket bodies, and fragments generated from explosions, collisions, or faulty payload assembly.

Loading next visibility...
Identifier
39712, 1992-093KC
Orbit
LEO
Country
Flag of CISCIS
Related business
Manufacturer
Unknown
Mission
Spacecraft
Bus & Motor
Unknown
Mass
Unknown
Launch date (UTC)
1992-12-25 (33 years ago)
Launch vehicle
Unknown
Launch site
Tyuratam Missile And Space Complex (TTMTR)
Object type
Payload
Rocket body
Debris
Shape & HBR
Unknown shape, 0.1 m
Radar Cross Section
Small (<0.1 m²)

Expand to show TLE details & history
Last TLE update: 3 months ago

TLE from 3 months ago
0 SL-16 DEB
1 39712U 92093KC  26025.80405795  .00002499  00000-0  12901-2 0  9997
2 39712  71.1244  64.1283 0091342 303.1286  56.1095 14.13862733 76039
Epoch: 2026-01-25T19:17Z
TLE epoch observation values (Epoch: 2026-01-25T19:17:50.606Z)
Latitude
-0.00005°
Longitude
9.55851°
Altitude
812.209 km
Speed
7.466 km/s
True Right ascension
04h 16m 30s
True Declination
0° 00' 00"
Sunlit
Object was in daylight at epoch
Visualization orbit readout
Latitude
Unknown
Longitude
Unknown
Altitude
Unknown
Speed
Unknown
Apparent Right ascension
Unknown
Apparent Declination
Unknown
Sunlit
N/A
Visualization observer readout
Local Sidereal Time
16:19:46
Azimuth
Unknown
Elevation
Unknown
Doppler factor
Unknown
Orbital elements
Apogee altitude
910.066 km
Perigee altitude
778.128 km
Semi-major axis
7,222.234 km
Eccentricity
0.00913
Inclination
71.1244°
RAAN
64.1283°
Arg. of periapsis
303.1286°
True anomaly
56.9839°
Mean anomaly
56.1095°
Eccentric anomaly
56.54615°
Mean motion
3.53619 °/min
Orbital period
101.8 mins
BSTAR
0.0012901
Loading maneuver chart data...
Computing Atmospheric mass density...
Loading historical data...
Loading historical data...
Loading historical data...
Loading historical data...
Loading historical data...
Loading historical data...
Loading historical data...

Documentation

Showing up to 5 results
|